De Queen, AR

11:43 PM CST on January 25, 2020 (GMT -0600)
Helms Sevier County

Weather History for KDEQ - October, 2019

Change the Weather History Date:

Tuesday, October 8, 2019

  Actual Average Record
Temperature  
Mean Temperature 62 °F 65 °F  
Max Temperature 79 °F 78 °F 97 °F (1963)
Min Temperature 46 °F 53 °F 30 °F (1952)
Degree Days  
Heating Degree Days 2 2  
Month to date heating degree days 2 16  
Since 1 July heating degree days 2 25  
Cooling Degree Days 0 3  
Month to date cooling degree days 77 28  
Year to date cooling degree days 2294 1893  
Growing Degree Days 12 (Base 50)    
Moisture  
Dew Point 48 °F    
Average Humidity 84    
Maximum Humidity 97    
Minimum Humidity 32    
Precipitation  
Precipitation 0.00 in 0.14 in 4.90 in (1990)
Month to date precipitation 0.37 1.24  
Year to date precipitation 42.46 36.44  
Snow  
Snow 0.00 in - - ()
Month to date snowfall 0.0  
Since 1 July snowfall 0.0  
Since 1 September snowfall 0.0  
Snow Depth 0.00 in    
Sea Level Pressure  
Sea Level Pressure 30.11 in    
Wind  
Wind Speed 0 mph ()    
Max Wind Speed 13 mph    
Max Gust Speed 17 mph    
Visibility 4.4 miles    
Events Fog    
T = Trace of Precipitation, MM = Missing Value Source: Averaged Metar Reports

Daily Weather History Graph

Daily Weather History Graph

Search for Another Location

Airport or City:

Astronomy

Oct. 08, 2019 Rise Set
Actual Time 7:17 AM CDT 6:52 PM CDT
Civil Twilight 6:52 AM CDT 7:17 PM CDT
Nautical Twilight 6:23 AM CDT 7:46 PM CDT
Astronomical Twilight 5:54 AM CDT 8:15 PM CDT
Moon 4:35 PM CDT (10/8) 2:25 AM CDT (10/8)
Length of Visible Light 12h 25m
Length of Day
11h 35m
Waxing Gibbous, 78% of the Moon is Illuminated
Oct 8
Waxing Gibbous
Oct 13
Full
Oct 21
Last Quarter
Oct 27
New
Nov 4
First Quarter

Hourly Weather History & Observations

Time (CDT) Temp. Dew Point Humidity Pressure Visibility Wind Dir Wind Speed Gust Speed Precip Events Conditions
12:39 AM 52.0 °F 50.0 °F 93% 30.15 in 1.8 mi Calm Calm - N/A   Clear
12:53 AM 52.0 °F 50.0 °F 93% 30.14 in 0.8 mi Calm Calm - N/A   Clear
1:02 AM 53.1 °F 51.1 °F 93% 30.15 in 2.0 mi Calm Calm - N/A   Clear
1:05 AM 52.0 °F 51.1 °F 97% 30.15 in 6.0 mi Calm Calm - N/A   Partly Cloudy
1:15 AM 52.0 °F 50.0 °F 93% 30.14 in 1.8 mi Calm Calm - N/A   Clear
1:27 AM 52.0 °F 50.0 °F 93% 30.14 in 0.5 mi Calm Calm - N/A Fog Fog
1:32 AM 52.0 °F 50.0 °F 93% 30.14 in 1.0 mi Calm Calm - N/A   Clear
1:36 AM 53.1 °F 50.0 °F 89% 30.14 in 3.0 mi Calm Calm - N/A   Clear
1:53 AM 51.1 °F 48.9 °F 92% 30.14 in 7.0 mi Calm Calm - N/A   Clear
2:53 AM 50.0 °F 48.0 °F 93% 30.13 in 8.0 mi Calm Calm - N/A   Clear
3:01 AM 50.0 °F 48.0 °F 93% 30.14 in 1.8 mi Calm Calm - N/A   Clear
3:10 AM 50.0 °F 48.0 °F 93% 30.13 in 0.8 mi Calm Calm - N/A   Clear
3:32 AM 50.0 °F 48.0 °F 93% 30.13 in 0.5 mi Calm Calm - N/A Fog Fog
3:47 AM 50.0 °F 48.2 °F 94% 30.13 in 1.5 mi Calm Calm - N/A   Partly Cloudy
3:49 AM 50.0 °F 48.2 °F 94% 30.13 in 3.0 mi Calm Calm - N/A   Partly Cloudy
3:53 AM 48.9 °F 46.9 °F 93% 30.12 in 10.0 mi Calm Calm - N/A   Partly Cloudy
4:15 AM 48.9 °F 46.0 °F 90% 30.13 in 1.8 mi Calm Calm - N/A   Clear
4:34 AM 48.9 °F 46.9 °F 93% 30.13 in 0.5 mi Calm Calm - N/A Fog Fog
4:53 AM 48.9 °F 46.0 °F 90% 30.12 in 1.0 mi Calm Calm - N/A   Mist
5:03 AM 48.9 °F 46.9 °F 93% 30.13 in 2.0 mi Calm Calm - N/A   Partly Cloudy
5:10 AM 48.9 °F 46.9 °F 93% 30.13 in 7.0 mi Calm Calm - N/A   Clear
5:33 AM 48.0 °F 46.0 °F 93% 30.13 in 2.0 mi Calm Calm - N/A   Clear
5:40 AM 48.0 °F 46.0 °F 93% 30.13 in 1.2 mi Calm Calm - N/A   Clear
5:49 AM 48.2 °F 46.4 °F 93% 30.13 in 0.8 mi Calm Calm - N/A   Clear
5:53 AM 48.0 °F 46.0 °F 93% 30.13 in 1.0 mi Calm Calm - N/A   Clear
6:03 AM 48.0 °F 45.0 °F 89% 30.14 in 0.8 mi Calm Calm - N/A   Clear
6:11 AM 46.9 °F 45.0 °F 93% 30.14 in 1.5 mi Calm Calm - N/A   Clear
6:24 AM 48.0 °F 46.0 °F 93% 30.14 in 0.8 mi Calm Calm - N/A   Clear
6:40 AM 46.9 °F 45.0 °F 93% 30.14 in 1.8 mi Calm Calm - N/A   Clear
6:51 AM 46.4 °F 44.6 °F 93% 30.14 in 3.0 mi Calm Calm - N/A   Clear
6:53 AM 46.9 °F 45.0 °F 93% 30.14 in 3.0 mi Calm Calm - N/A   Clear
7:09 AM 46.9 °F 45.0 °F 93% 30.14 in 1.5 mi Calm Calm - N/A   Clear
7:17 AM 46.9 °F 45.0 °F 93% 30.14 in 0.5 mi Calm Calm - N/A Fog Fog
7:37 AM 48.0 °F 46.0 °F 93% 30.15 in 0.8 mi Calm Calm - N/A   Clear
7:53 AM 48.0 °F 46.9 °F 96% 30.14 in 0.2 mi Calm Calm - N/A Fog Fog
8:02 AM 50.0 °F 48.9 °F 96% 30.15 in 1.0 mi Calm Calm - N/A   Clear
8:09 AM 50.0 °F 48.9 °F 96% 30.15 in 3.0 mi Calm Calm - N/A   Clear
8:53 AM 57.0 °F 53.1 °F 87% 30.15 in 10.0 mi Calm Calm - N/A   Clear
10:53 AM 69.1 °F 48.9 °F 49% 30.15 in 10.0 mi ESE 8.1 mph - N/A   Clear
11:53 AM 71.1 °F 46.9 °F 42% 30.14 in 10.0 mi East 10.4 mph - N/A   Clear
12:53 PM 73.9 °F 50.0 °F 43% 30.10 in 10.0 mi East 5.8 mph - N/A   Clear
2:53 PM 77.0 °F 46.9 °F 34% 30.04 in 10.0 mi NE 3.5 mph - N/A   Clear
3:53 PM 77.0 °F 46.0 °F 33% 30.02 in 10.0 mi ESE 5.8 mph - N/A   Clear
4:53 PM 78.1 °F 46.0 °F 32% 30.00 in 10.0 mi Calm Calm - N/A   Clear
5:53 PM 75.9 °F 48.0 °F 37% 30.00 in 10.0 mi SE 4.6 mph - N/A   Clear
6:53 PM 66.0 °F 53.1 °F 63% 29.99 in 10.0 mi Calm Calm - N/A   Clear
7:53 PM 59.0 °F 53.1 °F 81% 30.00 in 10.0 mi Calm Calm - N/A   Clear
8:53 PM 57.0 °F 53.1 °F 87% 30.01 in 10.0 mi Calm Calm - N/A   Clear
9:53 PM 55.0 °F 52.0 °F 89% 30.02 in 10.0 mi Calm Calm - N/A   Clear
10:53 PM 52.0 °F 50.0 °F 93% 30.02 in 10.0 mi ENE 3.5 mph - N/A   Clear
11:53 PM 53.1 °F 50.0 °F 89% 30.01 in 10.0 mi ENE 3.5 mph - N/A   Clear